TimePDT,TemperatureF,Dew PointF,Humidity,Sea Level PressureIn,VisibilityMPH,Wind Direction,Wind SpeedMPH,Gust SpeedMPH,PrecipitationIn,Events,Conditions,WindDirDegrees,DateUTC
12:53 AM,43.0,19.0,38,29.86,-9999.0,Variable,3.5,-,N/A,,Unknown,0,2012-10-09 07:53:00
1:53 AM,42.1,19.9,41,29.87,-9999.0,SSW,8.1,-,N/A,,Unknown,200,2012-10-09 08:53:00
2:53 AM,41.0,19.9,43,29.87,-9999.0,SSW,6.9,-,N/A,,Unknown,200,2012-10-09 09:53:00
3:53 AM,43.0,19.0,38,29.86,-9999.0,SSE,5.8,-,N/A,,Unknown,160,2012-10-09 10:53:00
4:53 AM,39.0,19.0,45,29.88,-9999.0,SSW,6.9,-,N/A,,Unknown,210,2012-10-09 11:53:00
5:53 AM,36.0,19.0,50,29.90,-9999.0,SSW,5.8,-,N/A,,Unknown,210,2012-10-09 12:53:00
6:53 AM,33.1,18.0,54,29.96,-9999.0,SW,5.8,-,N/A,,Unknown,230,2012-10-09 13:53:00
7:53 AM,37.9,19.0,47,29.97,-9999.0,Calm,Calm,-,N/A,,Unknown,0,2012-10-09 14:53:00
8:53 AM,50.0,19.9,31,29.94,-9999.0,Calm,Calm,-,N/A,,Unknown,0,2012-10-09 15:53:00
9:53 AM,57.0,19.9,24,29.92,-9999.0,Calm,Calm,-,N/A,,Unknown,0,2012-10-09 16:53:00
10:53 AM,64.0,21.9,20,29.90,-9999.0,North,6.9,-,N/A,,Unknown,360,2012-10-09 17:53:00
11:36 AM,68.0,19.0,15,30.06,-9999.0,SE,11.5,21.9,N/A,,Unknown,140,2012-10-09 18:36:00
11:53 AM,68.0,19.0,15,29.89,-9999.0,ESE,11.5,20.7,N/A,,Unknown,110,2012-10-09 18:53:00
12:30 PM,71.1,12.9,11,30.05,-9999.0,South,16.1,-,N/A,,Unknown,170,2012-10-09 19:30:00
12:53 PM,71.1,15.1,12,29.87,-9999.0,South,15.0,21.9,N/A,,Unknown,170,2012-10-09 19:53:00
1:53 PM,72.0,16.0,12,29.85,-9999.0,South,10.4,-,N/A,,Unknown,180,2012-10-09 20:53:00
2:53 PM,72.0,17.1,12,29.85,-9999.0,SSE,15.0,23.0,N/A,,Unknown,160,2012-10-09 21:53:00
3:53 PM,72.0,19.0,13,29.83,-9999.0,SSE,12.7,20.7,N/A,,Unknown,160,2012-10-09 22:53:00
4:53 PM,72.0,18.0,13,29.84,-9999.0,SSE,15.0,26.5,N/A,,Unknown,160,2012-10-09 23:53:00
5:53 PM,68.0,18.0,15,29.87,-9999.0,SSE,15.0,-,N/A,,Unknown,160,2012-10-10 00:53:00
6:53 PM,57.9,19.9,23,29.92,-9999.0,SE,10.4,-,N/A,,Unknown,130,2012-10-10 01:53:00
7:53 PM,55.9,19.0,24,29.92,-9999.0,SE,9.2,-,N/A,,Unknown,140,2012-10-10 02:53:00
8:53 PM,55.0,21.0,27,29.90,-9999.0,SE,10.4,-,N/A,,Unknown,130,2012-10-10 03:53:00
9:53 PM,55.9,17.1,22,29.88,-9999.0,Calm,Calm,-,N/A,,Unknown,0,2012-10-10 04:53:00
10:53 PM,55.0,15.1,21,29.86,-9999.0,Calm,Calm,-,N/A,,Unknown,0,2012-10-10 05:53:00
11:53 PM,53.1,15.1,22,29.86,-9999.0,Calm,Calm,-,N/A,,Unknown,0,2012-10-10 06:53:00